�N����,����,�~����,�C��,���x,�C��,����,���ϕ���,�ő�u�ԕ���,�ő厞����,���˗�,�I�_���x,�n�����x,�ő啗���N��,DTYPE
"17/06/10","00:10",0.0,17.2,84.8,1001.9,287.6,1.0,1.4,300.2,0.00,14.7,21.1,"00:01:28",1
"17/06/10","00:20",0.0,17.1,84.8,1001.9,292.4,1.0,1.6,318.3,0.00,14.6,20.8,"00:14:24",1
"17/06/10","00:30",0.0,17.0,85.0,1001.7,287.4,1.1,1.7,319.4,0.00,14.5,20.8,"00:26:08",1
"17/06/10","00:40",0.0,16.8,84.9,1001.7,291.7,0.8,1.4,328.7,0.00,14.3,20.5,"00:32:56",1
"17/06/10","00:50",0.0,16.7,86.5,1001.7,311.5,1.1,1.3,318.8,0.00,14.5,20.6,"00:41:12",1
"17/06/10","01:00",0.0,16.3,86.7,1001.5,301.8,0.7,1.1,286.9,0.00,14.1,20.3,"00:50:02",1
"17/06/10","01:10",0.0,16.2,87.3,1001.5,284.6,1.0,1.3,280.2,0.00,14.1,20.4,"01:00:16",1
"17/06/10","01:20",0.0,16.3,87.2,1001.7,294.2,1.1,2.4,323.8,0.00,14.2,20.1,"01:14:40",1
"17/06/10","01:30",0.0,16.2,87.7,1001.7,302.2,1.0,1.8,313.5,0.00,14.2,20.2,"01:23:52",1
"17/06/10","01:40",0.0,16.0,87.8,1001.7,296.7,1.0,1.3,332.6,0.00,14.0,20.1,"01:31:20",1
"17/06/10","01:50",0.0,16.0,88.1,1001.7,288.3,1.1,1.9,306.3,0.00,14.1,20.1,"01:41:28",1
"17/06/10","02:00",0.0,16.0,87.8,1001.7,296.6,1.1,1.7,331.2,0.00,14.0,20.2,"01:57:44",1
"17/06/10","02:10",0.0,15.9,87.9,1001.7,289.9,1.1,1.7,309.6,0.00,13.9,19.8,"02:00:56",1
"17/06/10","02:20",0.0,15.7,87.8,1001.5,293.7,1.0,1.3,324.3,0.00,13.7,19.8,"02:13:52",1
"17/06/10","02:30",0.0,15.6,88.4,1001.7,299.6,1.1,1.4,322.7,0.00,13.7,19.7,"02:22:00",1
"17/06/10","02:40",0.0,15.6,88.2,1001.5,287.7,1.0,1.4,313.5,0.00,13.7,19.6,"02:38:08",1
"17/06/10","02:50",0.0,15.4,88.5,1001.9,298.3,1.0,1.9,312.0,0.00,13.6,19.7,"02:42:48",1
"17/06/10","03:00",0.0,15.2,89.1,1001.7,285.9,1.0,1.4,310.2,0.00,13.5,19.5,"02:52:00",1
"17/06/10","03:10",0.0,15.2,89.5,1002.2,289.2,1.1,1.7,302.7,0.00,13.5,19.5,"03:08:48",1
"17/06/10","03:20",0.0,15.2,89.5,1001.9,306.0,1.2,2.0,316.8,0.00,13.5,19.4,"03:10:48",1
"17/06/10","03:30",0.0,15.1,89.6,1001.9,314.9,1.2,1.7,306.3,0.00,13.4,19.4,"03:26:24",1
"17/06/10","03:40",0.0,15.0,90.0,1001.9,282.8,1.1,1.7,297.6,0.00,13.4,19.4,"03:30:56",1
"17/06/10","03:50",0.0,14.9,90.2,1001.9,277.2,1.0,1.3,269.6,0.00,13.3,19.4,"03:44:56",1
"17/06/10","04:00",0.0,14.8,90.2,1002.2,286.9,1.0,1.2,277.4,0.00,13.3,19.1,"03:50:24",1
"17/06/10","04:10",0.0,14.7,90.2,1002.4,295.1,0.8,1.2,301.1,0.00,13.2,19.2,"04:03:04",1
"17/06/10","04:20",0.0,14.5,90.8,1002.4,299.8,1.1,1.7,317.6,0.00,13.1,19.0,"04:17:20",1
"17/06/10","04:30",0.0,14.5,91.2,1002.4,284.5,1.1,1.7,300.4,0.00,13.1,19.3,"04:22:08",1
"17/06/10","04:40",0.0,14.5,91.3,1002.4,295.6,1.1,1.6,315.7,0.00,13.1,19.1,"04:36:16",1
"17/06/10","04:50",0.0,14.4,91.4,1002.4,291.7,1.0,1.4,321.5,0.00,13.1,18.9,"04:46:40",1
"17/06/10","05:00",0.0,14.3,91.5,1002.9,304.0,1.2,2.1,318.8,0.00,13.0,18.9,"04:54:24",1
"17/06/10","05:10",0.0,14.3,91.8,1002.2,301.0,1.1,1.7,328.0,0.00,13.0,18.6,"05:07:52",1
"17/06/10","05:20",0.0,14.2,92.2,1002.6,288.8,1.0,1.6,294.3,0.00,13.0,18.9,"05:18:48",1
"17/06/10","05:30",0.0,14.4,92.6,1002.6,288.7,1.0,1.4,310.7,0.00,13.3,18.8,"05:20:08",1
"17/06/10","05:40",0.0,14.6,92.5,1002.6,310.2,1.5,2.0,308.4,0.00,13.4,18.8,"05:32:48",1
"17/06/10","05:50",0.0,14.8,92.7,1002.4,296.9,1.1,1.4,322.7,0.00,13.7,18.7,"05:40:16",1
"17/06/10","06:00",0.0,15.1,92.5,1002.9,296.8,1.2,2.1,324.2,0.01,13.9,18.8,"05:55:36",1
"17/06/10","06:10",0.0,15.6,91.9,1002.2,322.9,1.6,2.2,320.8,0.02,14.3,18.8,"06:03:52",1
"17/06/10","06:20",0.0,16.4,91.1,1002.4,333.3,0.8,1.9,335.8,0.03,15.0,18.8,"06:10:48",1
"17/06/10","06:30",0.0,17.0,88.9,1002.4,321.8,0.6,0.9,333.6,0.05,15.2,18.9,"06:20:56",1
"17/06/10","06:40",0.0,17.6,86.8,1002.6,313.2,1.1,2.6,317.6,0.07,15.4,19.0,"06:37:44",1
"17/06/10","06:50",0.0,18.4,82.0,1003.1,333.5,1.2,1.9,336.5,0.09,15.3,19.0,"06:42:40",1
"17/06/10","07:00",0.0,18.9,82.5,1003.1,337.8,1.1,1.9,340.5,0.11,15.9,19.1,"06:55:28",1
"17/06/10","07:10",0.0,19.3,78.7,1002.9,339.5,1.2,2.1,339.8,0.12,15.6,19.2,"07:03:52",1
"17/06/10","07:20",0.0,19.8,74.5,1002.6,313.0,1.0,1.6,325.3,0.13,15.2,19.2,"07:15:04",1
"17/06/10","07:30",0.0,20.3,75.4,1003.1,274.6,0.5,1.2,243.7,0.15,15.8,19.2,"07:22:56",1
"17/06/10","07:40",0.0,20.7,73.4,1003.1,307.1,0.3,1.0,320.8,0.12,15.8,19.5,"07:37:52",1
"17/06/10","07:50",0.0,20.1,76.2,1002.6,251.5,0.6,1.0,224.7,0.13,15.8,19.7,"07:45:12",1
"17/06/10","08:00",0.0,21.2,73.1,1002.2,251.9,0.3,0.9,249.3,0.22,16.2,19.8,"07:50:08",1
"17/06/10","08:10",0.0,21.8,70.4,1002.2,50.0,0.3,1.4,116.4,0.24,16.2,20.0,"08:09:20",1
"17/06/10","08:20",0.0,22.4,71.6,1001.9,139.5,0.6,1.4,107.4,0.28,17.1,20.2,"08:10:24",1
"17/06/10","08:30",0.0,22.8,69.0,1001.9,168.1,0.6,2.8,214.8,0.29,16.9,20.2,"08:23:28",1
"17/06/10","08:40",0.0,23.1,67.8,1001.7,130.4,0.8,2.4,115.2,0.33,16.9,20.5,"08:36:48",1
"17/06/10","08:50",0.0,23.5,66.7,1001.2,129.3,0.8,2.5,163.4,0.35,17.0,20.6,"08:44:32",1
"17/06/10","09:00",0.0,24.1,66.9,1001.2,172.2,1.1,2.7,223.6,0.38,17.6,20.9,"08:57:28",1
"17/06/10","09:10",0.0,24.6,64.7,1001.5,150.2,1.0,2.0,145.0,0.39,17.6,21.2,"09:05:04",1
"17/06/10","09:20",0.0,24.8,64.1,1001.0,104.7,0.8,2.5,136.3,0.36,17.6,21.3,"09:18:40",1
"17/06/10","09:30",0.0,24.9,62.0,1001.0,340.2,1.1,2.2,152.6,0.43,17.2,21.6,"09:21:28",1
"17/06/10","09:40",0.0,26.0,59.7,1000.0,4.4,1.0,2.0,343.7,0.46,17.6,21.9,"09:35:36",1
"17/06/10","09:50",0.0,26.0,60.0,999.8,31.2,1.0,2.4,6.9,0.43,17.7,22.1,"09:48:24",1
"17/06/10","10:00",0.0,26.3,57.5,999.8,299.6,1.1,2.7,355.3,0.47,17.3,22.3,"09:52:56",1
"17/06/10","10:10",0.0,27.0,55.8,1000.0,280.4,0.6,2.2,350.4,0.49,17.5,22.6,"10:04:08",1
"17/06/10","10:20",0.0,26.8,53.2,1000.0,295.8,1.3,4.2,338.2,0.52,16.5,22.9,"10:18:56",1
"17/06/10","10:30",0.0,26.5,57.7,1000.0,165.0,1.7,4.2,133.5,0.44,17.5,23.2,"10:24:16",1
"17/06/10","10:40",0.0,27.0,54.0,1000.3,200.1,1.6,3.5,227.7,0.54,16.9,23.4,"10:37:04",1
"17/06/10","10:50",0.0,26.7,52.2,1000.0,295.7,1.8,4.8,357.4,0.47,16.1,23.7,"10:45:04",1
"17/06/10","11:00",0.0,27.1,48.6,999.8,337.5,2.2,5.7,336.1,0.49,15.4,23.9,"10:56:32",1
"17/06/10","11:10",0.0,26.9,46.0,999.8,329.4,2.2,4.7,348.4,0.46,14.4,23.9,"11:00:24",1
"17/06/10","11:20",0.0,27.5,45.2,999.8,302.7,2.2,6.2,352.1,0.56,14.6,24.1,"11:12:08",1
"17/06/10","11:30",0.0,27.8,41.4,999.8,320.9,2.1,5.6,353.4,0.58,13.5,24.4,"11:28:40",1
"17/06/10","11:40",0.0,28.0,41.5,999.8,298.3,2.2,5.2,353.6,0.58,13.8,24.7,"11:31:44",1
"17/06/10","11:50",0.0,28.2,42.2,999.8,270.8,1.6,4.3,226.1,0.59,14.2,24.7,"11:41:52",1
"17/06/10","12:00",0.0,27.9,40.9,1000.0,286.7,2.1,4.3,234.3,0.59,13.4,25.0,"11:54:48",1
"17/06/10","12:10",0.0,28.2,37.8,999.3,327.1,1.7,4.7,343.8,0.59,12.5,25.1,"12:04:00",1
"17/06/10","12:20",0.0,28.6,41.4,999.8,265.5,1.0,2.7,248.8,0.59,14.3,25.2,"12:14:16",1
"17/06/10","12:30",0.0,28.6,41.8,999.3,226.3,2.5,6.3,218.9,0.60,14.4,25.6,"12:25:28",1
"17/06/10","12:40",0.0,29.1,38.1,1000.0,254.2,1.3,3.3,278.8,0.59,13.4,25.6,"12:39:36",1
"17/06/10","12:50",0.0,28.8,37.6,999.8,243.3,1.8,4.1,353.5,0.58,13.0,25.9,"12:40:56",1
"17/06/10","13:00",0.0,28.9,39.6,999.3,238.6,2.0,3.7,206.9,0.58,13.8,25.9,"12:51:28",1
"17/06/10","13:10",0.0,29.6,37.5,999.8,243.4,1.3,4.7,223.4,0.58,13.6,25.7,"13:06:32",1
"17/06/10","13:20",0.0,29.3,37.0,999.6,254.7,1.8,4.0,239.5,0.56,13.2,25.8,"13:18:56",1
"17/06/10","13:30",0.0,29.4,36.5,999.1,216.7,1.8,3.6,218.7,0.55,13.0,25.7,"13:21:28",1
"17/06/10","13:40",0.0,29.6,36.8,999.3,246.7,1.5,5.9,226.2,0.53,13.3,25.6,"13:36:56",1
"17/06/10","13:50",0.0,29.6,38.8,998.9,225.7,1.5,3.3,227.8,0.52,14.1,25.6,"13:44:16",1
"17/06/10","14:00",0.0,29.9,36.1,999.1,311.1,1.2,4.5,343.9,0.47,13.3,25.5,"13:59:28",1
"17/06/10","14:10",0.0,30.4,36.8,998.9,297.9,1.0,2.4,319.4,0.48,14.0,25.7,"14:06:44",1
"17/06/10","14:20",0.0,30.1,36.8,999.1,284.5,1.3,5.9,351.6,0.47,13.8,25.7,"14:14:08",1
"17/06/10","14:30",0.0,30.0,36.1,998.9,297.4,1.3,3.9,224.3,0.43,13.4,25.7,"14:27:28",1
"17/06/10","14:40",0.0,30.2,37.4,999.1,248.6,1.1,3.1,228.9,0.41,14.1,26.1,"14:35:44",1
"17/06/10","14:50",0.0,29.7,36.9,998.6,312.3,1.7,4.7,343.2,0.39,13.5,26.0,"14:44:08",1
"17/06/10","15:00",0.0,29.6,38.1,998.9,316.4,1.6,3.9,337.2,0.37,13.9,26.0,"14:59:04",1
"17/06/10","15:10",0.0,29.3,39.5,998.9,335.1,2.0,3.6,332.3,0.31,14.2,26.1,"15:02:56",1
"17/06/10","15:20",0.0,28.6,42.0,998.4,314.4,1.5,3.5,342.2,0.22,14.5,26.1,"15:14:16",1
"17/06/10","15:30",0.0,28.7,40.6,997.9,314.4,1.2,4.0,341.9,0.20,14.0,26.0,"15:22:32",1
"17/06/10","15:40",0.0,28.4,45.0,998.2,316.0,1.1,2.9,344.9,0.15,15.4,25.8,"15:34:56",1
"17/06/10","15:50",0.0,28.6,43.4,997.9,301.9,0.7,2.4,344.1,0.14,15.0,25.7,"15:41:52",1
"17/06/10","16:00",0.0,28.5,42.5,997.9,341.6,0.7,2.1,25.1,0.13,14.6,25.7,"15:59:28",1
"17/06/10","16:10",0.0,27.7,46.7,997.9,56.1,1.0,2.8,72.3,0.13,15.3,25.7,"16:02:56",1
"17/06/10","16:20",0.0,27.4,47.8,997.7,48.2,1.2,2.7,52.9,0.14,15.4,25.7,"16:10:32",1
"17/06/10","16:30",0.0,27.8,51.9,997.4,25.8,1.0,2.7,333.8,0.18,17.1,25.6,"16:29:20",1
"17/06/10","16:40",0.0,27.1,53.6,998.4,337.3,2.8,6.7,352.5,0.21,16.9,25.6,"16:33:20",1
"17/06/10","16:50",0.0,26.4,55.5,998.2,340.6,3.2,6.4,328.8,0.17,16.8,25.4,"16:48:32",1
"17/06/10","17:00",0.0,25.9,57.7,998.6,341.9,3.7,8.3,326.1,0.13,17.0,25.5,"16:59:28",1
"17/06/10","17:10",0.0,25.5,59.0,998.4,345.1,3.1,7.3,347.1,0.10,16.9,25.2,"17:03:44",1
"17/06/10","17:20",0.0,25.3,59.7,999.1,347.4,3.4,6.3,349.5,0.10,16.9,25.2,"17:13:36",1
"17/06/10","17:30",0.0,25.0,60.7,999.1,351.3,3.6,6.8,340.5,0.09,16.9,25.0,"17:24:00",1
"17/06/10","17:40",0.0,24.7,62.1,999.3,348.5,3.2,6.6,344.4,0.06,17.0,25.0,"17:33:36",1
"17/06/10","17:50",0.0,24.4,62.0,999.3,356.5,3.1,5.8,346.2,0.06,16.7,24.8,"17:40:40",1
"17/06/10","18:00",0.0,24.2,62.4,999.6,350.9,2.7,4.7,302.3,0.06,16.6,24.7,"17:54:32",1
"17/06/10","18:10",0.0,24.1,63.0,1000.0,348.7,2.7,5.2,342.8,0.05,16.7,24.6,"18:09:12",1
"17/06/10","18:20",0.0,23.8,63.7,1000.0,353.9,2.6,5.1,344.3,0.03,16.6,24.3,"18:11:20",1
"17/06/10","18:30",0.0,23.5,64.6,1000.0,350.8,2.5,6.2,24.9,0.02,16.5,24.3,"18:24:16",1
"17/06/10","18:40",0.0,23.3,65.6,1000.3,355.0,2.6,4.2,337.3,0.02,16.5,24.2,"18:37:12",1
"17/06/10","18:50",0.0,23.1,66.7,1000.5,352.0,2.5,6.8,323.9,0.01,16.6,24.1,"18:42:48",1
"17/06/10","19:00",0.0,22.8,67.9,1000.8,344.9,2.3,4.7,317.6,0.00,16.6,24.0,"18:54:00",1
"17/06/10","19:10",0.0,22.6,68.8,1000.5,351.1,1.8,4.3,332.2,0.00,16.6,23.7,"19:09:12",1
"17/06/10","19:20",0.0,22.3,69.3,1001.0,358.1,2.1,3.9,3.1,0.00,16.4,23.7,"19:12:16",1
"17/06/10","19:30",0.0,22.1,69.9,1001.0,2.6,2.5,4.9,336.9,0.00,16.4,23.5,"19:26:32",1
"17/06/10","19:40",0.0,21.9,71.6,1001.0,353.1,2.1,4.1,324.9,0.00,16.6,23.6,"19:31:44",1
"17/06/10","19:50",0.0,21.7,72.3,1001.5,348.0,2.7,6.2,344.5,0.00,16.5,23.4,"19:49:12",1
"17/06/10","20:00",0.0,21.4,72.8,1001.2,341.2,2.2,5.0,337.8,0.00,16.4,23.2,"19:58:48",1
"17/06/10","20:10",0.0,21.2,72.9,1002.2,343.4,3.2,8.8,326.3,0.00,16.2,23.1,"20:05:52",1
"17/06/10","20:20",0.0,21.1,73.1,1001.9,343.5,2.5,5.4,355.0,0.00,16.1,22.9,"20:17:20",1
"17/06/10","20:30",0.0,21.0,71.9,1001.9,352.6,2.6,5.2,333.9,0.00,15.8,23.0,"20:26:56",1
"17/06/10","20:40",0.0,20.9,71.0,1001.9,357.9,2.2,4.3,21.1,0.00,15.5,22.9,"20:37:12",1
"17/06/10","20:50",0.0,20.8,69.6,1002.2,355.5,2.6,4.8,336.4,0.00,15.1,22.7,"20:46:24",1
"17/06/10","21:00",0.0,20.6,68.2,1002.2,2.8,2.0,5.7,44.0,0.00,14.6,22.6,"20:58:56",1
"17/06/10","21:10",0.0,20.5,67.5,1002.4,5.7,1.8,3.4,336.6,0.00,14.3,22.5,"21:03:44",1
"17/06/10","21:20",0.0,20.3,66.8,1002.4,356.8,2.3,4.2,339.7,0.00,14.0,22.5,"21:17:20",1
"17/06/10","21:30",0.0,20.2,67.8,1002.4,353.5,2.1,4.4,330.3,0.00,14.1,22.3,"21:21:44",1
"17/06/10","21:40",0.0,20.1,67.8,1002.4,4.9,2.2,3.6,11.7,0.00,14.0,22.2,"21:33:20",1
"17/06/10","21:50",0.0,20.0,69.0,1002.6,349.3,2.0,5.4,349.1,0.00,14.2,22.2,"21:43:20",1
"17/06/10","22:00",0.0,19.8,69.3,1002.4,335.1,2.1,4.1,326.2,0.00,14.1,22.1,"21:50:08",1
"17/06/10","22:10",0.0,19.8,68.7,1002.6,335.8,1.6,3.2,340.9,0.00,13.9,21.8,"22:05:28",1
"17/06/10","22:20",0.0,19.9,67.8,1002.6,343.7,1.2,2.9,330.9,0.00,13.8,22.0,"22:14:24",1
"17/06/10","22:30",0.0,19.8,66.2,1003.1,337.7,1.2,2.4,335.9,0.00,13.4,22.0,"22:25:28",1
"17/06/10","22:40",0.0,19.9,64.8,1002.9,336.8,1.3,2.6,342.4,0.00,13.1,21.8,"22:34:00",1
"17/06/10","22:50",0.0,19.8,66.4,1002.6,325.2,1.2,1.8,342.8,0.00,13.4,21.8,"22:46:08",1
"17/06/10","23:00",0.0,19.5,66.9,1002.4,313.7,1.2,2.6,336.9,0.00,13.2,21.6,"22:56:00",1
"17/06/10","23:10",0.0,19.3,68.0,1002.9,324.6,1.2,2.1,336.3,0.00,13.3,21.6,"23:01:52",1
"17/06/10","23:20",0.0,19.2,66.9,1002.4,338.9,1.6,3.4,339.7,0.00,12.9,21.6,"23:18:32",1
"17/06/10","23:30",0.0,19.4,68.1,1002.6,322.3,2.1,3.2,324.3,0.00,13.4,21.4,"23:21:12",1
"17/06/10","23:40",0.0,19.3,64.6,1002.9,320.2,2.5,5.5,317.2,0.00,12.5,21.5,"23:35:04",1
"17/06/10","23:50",0.0,19.4,63.3,1002.6,330.2,3.0,4.8,334.4,0.00,12.3,21.3,"23:46:32",1
"17/06/10","24:00",0.0,19.3,64.3,1002.4,321.4,2.1,3.7,318.5,0.00,12.4,21.4,"23:51:36",1
